Weather History for Hill City, KS

Change the Weather History Date:

Monday, February 18, 2013

  Actual Average Record
Temperature  
Mean Temperature 34 °F 34 °F  
Max Temperature 50 °F 47 °F 75 °F (1986)
Min Temperature 18 °F 20 °F -6 °F (1978)
Degree Days  
Heating Degree Days 30    
Moisture  
Dew Point 19 °F    
Average Humidity 48    
Maximum Humidity 74    
Minimum Humidity 26    
Precipitation  
Precipitation 0.00 in 0.02 in 0.00 in (2014)
Month to date precipitation 0.05 0.32  
Year to date precipitation 0.14 0.77  
Sea Level Pressure  
Sea Level Pressure 29.89 in    
Wind  
Wind Speed 20 mph (NNW)    
Max Wind Speed 30 mph    
Max Gust Speed 45 mph    
Visibility 10 miles    
Events      
T = Trace of Precipitation, MM = Missing Value Source: NWS Daily Summary

Daily Weather History Graph

Daily Weather History Graph

Search for Another Location

Airport:

Trip Planner

Search our weather history database for the weather conditions in past years. The results will help you decide how hot, cold, wet, or windy it might be!

Date:

Astronomy

Feb. 18, 2013 Rise Set
Actual Time 7:27 AM CST 6:19 PM CST
Civil Twilight 6:59 AM CST 6:47 PM CST
Nautical Twilight 6:28 AM CST 7:18 PM CST
Astronomical Twilight 5:57 AM CST 7:49 PM CST
Moon 12:07 PM CST (2/18) 2:07 AM CST (2/18)
Length of Visible Light 11h 47m
Length of Day
10h 52m
First Quarter, 58% of the Moon is Illuminated
Feb 18
First Quarter
Feb 25
Full
Mar 4
Last Quarter
Mar 11
New
Mar 19
First Quarter

Hourly Weather History & Observations

Time (CST) Temp. Windchill Dew Point Humidity Pressure Visibility Wind Dir Wind Speed Gust Speed Precip Events Conditions
12:53 AM 39.9 °F 31.8 °F 23.0 °F 51% 29.44 in 10.0 mi NNW 15.0 mph - N/A   Clear
1:53 AM 44.1 °F 34.0 °F 28.0 °F 53% 29.49 in 10.0 mi North 29.9 mph 44.9 mph N/A   Clear
2:53 AM 42.1 °F 31.7 °F 28.9 °F 60% 29.55 in 10.0 mi North 27.6 mph 41.4 mph N/A   Clear
3:53 AM 41.0 °F 30.7 °F 27.0 °F 57% 29.59 in 10.0 mi North 25.3 mph 34.5 mph N/A   Clear
4:53 AM 39.0 °F 28.8 °F 25.0 °F 57% 29.63 in 10.0 mi North 21.9 mph 27.6 mph N/A   Clear
5:53 AM 37.0 °F 25.9 °F 25.0 °F 62% 29.68 in 10.0 mi North 23.0 mph 31.1 mph N/A   Clear
6:53 AM 36.0 °F 24.4 °F 24.1 °F 62% 29.75 in 10.0 mi NNW 23.0 mph 32.2 mph N/A   Partly Cloudy
8:53 AM 37.9 °F 27.1 °F 25.0 °F 60% 29.86 in 10.0 mi NNW 23.0 mph 29.9 mph N/A   Mostly Cloudy
9:53 AM 39.0 °F 27.2 °F 23.0 °F 53% 29.89 in 10.0 mi NNW 29.9 mph 39.1 mph N/A   Mostly Cloudy
10:53 AM 42.1 °F 31.7 °F 21.0 °F 43% 29.92 in 10.0 mi North 27.6 mph 38.0 mph N/A   Scattered Clouds
11:53 AM 45.0 °F 35.2 °F 19.9 °F 37% 29.93 in 10.0 mi North 29.9 mph 39.1 mph N/A   Partly Cloudy
12:53 PM 48.0 °F - 17.1 °F 29% 29.94 in 10.0 mi NNW 24.2 mph 38.0 mph N/A   Clear
1:53 PM 48.0 °F - 15.1 °F 27% 29.93 in 10.0 mi NNW 23.0 mph 39.1 mph N/A   Clear
2:53 PM 48.0 °F - 14.0 °F 26% 29.94 in 10.0 mi NW 25.3 mph 36.8 mph N/A   Clear
3:53 PM 48.0 °F - 14.0 °F 26% 29.97 in 10.0 mi North 20.7 mph 31.1 mph N/A   Clear
4:53 PM 46.0 °F 38.0 °F 14.0 °F 28% 30.00 in 10.0 mi NNW 21.9 mph 28.8 mph N/A   Clear
5:53 PM 42.1 °F 34.5 °F 14.0 °F 32% 30.03 in 10.0 mi NNW 15.0 mph - N/A   Clear
6:53 PM 37.0 °F 31.0 °F 14.0 °F 39% 30.08 in 10.0 mi North 8.1 mph - N/A   Clear
7:53 PM 33.1 °F 26.9 °F 15.1 °F 48% 30.10 in 10.0 mi North 6.9 mph - N/A   Scattered Clouds
8:53 PM 27.0 °F 20.5 °F 14.0 °F 58% 30.12 in 10.0 mi NNW 5.8 mph - N/A   Scattered Clouds
9:53 PM 23.0 °F 18.4 °F 12.9 °F 65% 30.15 in 10.0 mi West 3.5 mph - N/A   Clear
10:53 PM 23.0 °F - 12.9 °F 65% 30.17 in 10.0 mi Calm Calm - N/A   Clear
11:53 PM 18.0 °F 12.7 °F 10.9 °F 74% 30.20 in 10.0 mi West 3.5 mph - N/A   Clear